www.pogodaiklimat.ru

Погода и климат >> Архив погоды >> Россия >> Челябинская область >> Катав-Ивановск


ПОГОДА в Катав-Ивановске

  • Прогноз погоды в Катав-Ивановске
  • Монитор погоды в Катав-Ивановске
  • Климат города

АРХИВ ПОГОДЫ в Катав-Ивановске

Время (UTC), дата Ветер
(напр.,м/с)
 
Видим.   Явления Облачность Т
(С)
Тd
(С)
f
(%)
Тe
(С)
Тes
(С)
Комфортность P
(гПа)
Po
(гПа)
Тmin
(С)
Tmax
(С)
R
(мм)
R24
(мм)
S
(см)
21 12.10 З 1 4000 м 10/0
[As op]
+7.4 -0.5 57 +7 +7 1018.3 961.2
00 13.10 Ю 1 4000 м 10/0
[As trans]
+6.6 -1.4 57 +6 +6 1017.2 960.0
03 13.10 ЮВ 3 50 км 10/0
[Ac As]
+5.8 -0.9 62 +3 +3 1016.8 959.5 +5.2
06 13.10 штиль 0 50 км 9/0
[Ac trans]
+9.0 +0.4 55 +9 +10 1016.2 959.6 +5.0
09 13.10 штиль 0 50 км 9/9 600 м
[Sc]
+12.6 -2.0 36 +13 +13 1014.7 958.8
12 13.10 Ю 1 50 км 10/10 600 м
[Sc]
+10.9 -0.3 46 +11 +11 1014.8 958.6
15 13.10 ЮВ 1 4000 м 10/10 600 м
[Sc]
+9.2 -2.1 45 +9 +9 1015.7 959.1 +12.9
18 13.10 Ю 2 4000 м 10/0
[As op]
+7.7 +0.2 59 +6 +6 1015.5 958.6
21 13.10 Ю 2 4000 м 10/0
[As op]
+6.8 +0.8 66 +5 +5 1015.4 958.4
00 14.10 ЮВ 1 4000 м 10/0
[As op]
+4.8 +1.6 80 +4 +4 1015.4 958.0
03 14.10 ЮВ 1 20 км 10/0
[As op]
+4.4 +1.6 82 +3 +3 1016.0 958.5 +4.4
06 14.10 Ю 1 50 км 10/0
[Ac As]
+8.1 +1.5 63 +8 +9 1015.5 958.7 +4.3
09 14.10 штиль 0 50 км 9/0
[Ac trans]
+11.4 +0.8 48 +11 +14 1014.1 958.0
12 14.10 штиль 0 50 км 9/0
[Ac trans]
+10.8 +1.1 51 +11 +11 1014.2 958.0
15 14.10 штиль 0 4000 м 8/0
[Ac trans]
+8.0 +1.6 64 +8 +8 1015.2 958.4 +11.6
18 14.10 ЮВ 2 4000 м ясно +2.1 -0.0 86 -1 -1 1016.2 958.2
21 14.10 ЮВ 3 4000 м ясно -0.3 -0.3 100 -5 -5 1016.3 957.8
00 15.10 ЮВ 2 10 км ясно -1.5 -1.5 100 -6 -6 1016.0 957.3
03 15.10 ЮВ 1 20 км 3/0
[Ac lent]
-1.3 -1.3 100 -4 -4 1015.3 956.6 -2.2
06 15.10 СВ 1 20 км 8/0
[Ac trans]
+4.7 +0.6 75 +4 +5 1012.8 955.5
09 15.10 Ю 2 50 км 10/0
[Ac As]
+10.6 +1.1 52 +10 +11 1010.2 954.2
12 15.10 Ю 1 50 км 10/6 600 м
[Sc Ac As]
+10.1 +3.6 64 +10 +10 1009.4 953.4
15 15.10 В 1 4000 м 10/10 600 м
[Sc]
+8.2 +5.2 81 +7 +7 1009.5 953.1 +11.2
18 15.10 штиль 0 4000 м слабый дождь 10/0
[Ac As]
+6.9 +5.4 90 +6 +6 1008.6 952.1
21 15.10 В 1 4000 м слабый дождь 10/0
[As op]
+6.9 +6.9 100 +6 +6 1007.5 951.0
00 16.10 штиль 0 4000 м в посл. час дождь 10/0
[Ac As]
+6.7 +6.7 100 +6 +6 1006.7 950.2
03 16.10 ЮВ 1 20 км 10/0
[Ac As]
+8.2 +5.4 82 +7 +7 1006.0 949.8 +6.5 2
06 16.10 В 2 50 км 10/0
[Ac As]
+8.8 +2.8 66 +7 +8 1006.6 950.5
09 16.10 В 2 50 км 10/0
[Ac As]
+11.1 -0.1 46 +10 +11 1005.9 950.2
12 16.10 ЮВ 2 50 км 10/0
[Ac As]
+11.4 -0.5 44 +11 +11 1006.1 950.4
15 16.10 ЮВ 3 4000 м 8/0
[Ac As]
+10.9 +0.1 47 +9 +9 1006.9 951.1 +11.8
18 16.10 ЮВ 1
{11}
4000 м 10/4 600 м
[Sc Ac As]
+8.7 +3.4 69 +8 +8 1008.1 951.9
21 16.10 ЮВ 2 4000 м 10/0
[Ac As]
+9.1 +3.6 68 +8 +8 1007.6 951.5
00 17.10 Ю 2 4000 м 10/0
[Ac As]
+9.0 +3.7 69 +7 +7 1007.3 951.3
03 17.10 В 2 20 км 9/4 600 м
[Sc Ac As]
+9.0 +3.4 68 +7 +7 1007.0 950.9 +7.1
06 17.10 Ю 1 50 км 3/0
[Ci fib]
+10.5 +2.0 56 +11 +13 1006.2 950.4
09 17.10 штиль 0 50 км 8/4 600 м
[Cu hum Ci fib]
+12.2 +3.5 55 +12 +14 1005.8 948.9
12 17.10 Ю 1 50 км 9/9 600 м
[Cu Sc]
+11.3 +3.8 60 +11 +11 1004.2 948.8
15 17.10 Ю 1 4000 м 9/9 600 м
[Sc]
+7.8 +2.9 71 +7 +7 1004.8 948.6 +12.3
18 17.10 Ю 2 4000 м 10/10 600 м
[Sc]
+7.5 +2.4 70 +6 +6 1004.7 948.5
21 17.10 Ю 1 4000 м 10/10 600 м
[Sc]
+6.5 +3.3 80 +6 +6 1004.0 947.6
00 18.10 Ю 1 4000 м 10/10 600 м
[Sc]
+6.6 +4.1 84 +6 +6 1003.6 947.3
03 18.10 ЮЗ 2 20 км 10/10 600 м
[Sc]
+6.2 +3.0 80 +4 +4 1004.0 947.5 +5.9
06 18.10 З 2 50 км 9/9 600 м
[Sc]
+6.0 +3.6 85 +4 +4 1005.3 948.7 +5.9
09 18.10 СЗ 2 50 км 10/10 600 м
[Sc]
+4.3 +1.5 82 +2 +2 1006.6 949.6
12 18.10 СЗ 1 20 км в посл. час ливневой дождь 10/10 600 м
[Sc]
+2.7 -0.2 81 +1 +1 1008.0 950.6
15 18.10 Ю 2 4000 м {ливн. осадки} 10/10 600 м
[Sc]
+2.3 +1.5 94 -1 -1 1007.8 950.3 +6.4 0.0
18 18.10 Ю 1 4000 м {ливн. осадки} 10/10 600 м
[Sc]
+1.1 -0.8 87 -1 -1 1007.0 949.3
21 18.10 Ю 1 4000 м 9/9 600 м
[Sc]
+2.9 +0.3 83 +1 +1 1004.8 947.6
00 19.10 Ю 1 4000 м 9/9 600 м
[Sc]
+3.7 +0.7 81 +2 +2 1003.2 946.3
03 19.10 Ю 2 20 км 10/10 600 м
[Sc]
+4.1 +1.9 86 +1 +1 1002.8 946.0 +1.0
06 19.10 ЮЗ 2 50 км 10/10 600 м
[Sc]
+5.4 +3.0 85 +3 +3 1002.5 945.9
09 19.10 ЮЗ 3
{10}
20 км 10/10 600 м
[St]
+6.5 +5.6 94 +3 +3 1001.3 945.1
12 19.10 ЮЗ 2 4000 м слабый ливневой дождь 9/9 600 м
[Cb cap]
+7.1 +6.7 97 +5 +5 1000.2 944.2
15 19.10 ЮЗ 2
{10}
4000 м {ливн. осадки} 8/8 600 м
[Cu Sc]
+4.6 +4.5 99 +2 +2 1002.9 946.2 +7.3 6

 

Местоположение метеостанции Катав-Ивановск (Челябинская область, Россия): широта 54.77 долгота 58.22 высота над уровнем моря 477 м.

В архиве по умолчанию представлена погода в Катав-Ивановске за последнюю неделю. Архивные данные за месяц целиком и за предыдущие месяцы, начиная с января 2011 года, Вы можете получить, выбрав интересующий диапазон дат из раскрывающегося списка и нажав кнопку "Ввод!".

Внимание! Время в таблицах - всемирное. Для получения местного времени необходимо прибавить поправку, которая в Катав-Ивановске равна 5 ч.

Смотрите также архив погоды в соседних городах и на ближайших метеорологических станциях:

Погода в Улу-Теляке (Башкирия, Россия) (83 км)
Погода в Учалах (Башкирия, Россия) (90 км)
Погода в Белорецке (Башкирия, Россия) (94 км)
Погода в Архангельском (Башкирия, Россия) (100 км)
Погода в Златоусте (Челябинская область, Россия) (103 км)
Погода в Дуване (Башкирия, Россия) (105 км)
Погода в Тукане (Башкирия, Россия) (109 км)
Погода в Верхнеуральске (Челябинская область, Россия) (118 км)
Погода в Миассе (Челябинская область, Россия) (122 км)
Погода в Емашах (Башкирия, Россия) (131 км)

Пояснения к столбцам:

Ветер - указаны скорость ветра в м/с - средняя за 10 мин, порывы в срок и между сроками (в фигурных скобках) и направление, откуда дует ветер: С - северный, СВ - северо-восточный, В - восточный, ЮВ - юго-восточный, Ю - южный, ЮЗ - юго-западный, З - западный, СЗ - северо-западный.
Видимость - горизонтальная дальность видимости в метрах или километрах. При видимости от 1 до 10 км при отсутствии осадков обычно наблюдается дымка, при ухудшении видимости до 1 км и менее - туман. В сухую погоду видимость может ухудшаться дымом, пылью или мглою.
Явления - указаны атмосферные явления, наблюдавшиеся в срок или в последний час перед сроком; фигурными скобками обозначены явления, наблюдавшиеся между сроками (за 1-3 часа до срока); квадратными скобками обозначены град или гололедные отложения с указанием их диаметра в мм.
Облачность - указаны через наклонную черту общая и нижняя облачность в баллах и высота нижней границы облаков в метрах; квадратными скобками обозначены формы облаков: Ci - перистые, Cs - перисто-слоистые, Cc - перисто-кучевые, Ac - высококучевые, As - высокослоистые, Sc - слоисто-кучевые, Ns - слоисто-дождевые, Cu - кучевые, Cb - кучево-дождевые. Подробнее классификацию облаков см. в Атласе облаков (PDF).
T - Температура воздуха - температура, измеренная на высоте 2 м над землей.
Td - Температура точки росы - температура, при понижении до которой содержащийся в воздухе водяной пар достигнет насыщения.
f - Относительная влажность воздуха - влажноcть воздуха, измеренная на высоте 2 м над землей.
Te - Эффективная температура - температура, которую ощущает одетый по сезону человек в тени. Характеристика душности погоды. При расчете учитывается влияние влажности воздуха и скорости ветра на теплоощущения человека.
Tes - Эффективная температура на солнце - температура, которую ощущает человек, с поправкой на солнечный нагрев. Характеристика знойности погоды. Зависит от высоты солнца над горизонтом, облачности и скорости ветра. Ночью, в пасмурную погоду, а также при ветре 12 м/с и более поправка равна нулю.
P - Атмосферное давление - приведенное к уровню моря атмосферное давление.
Po - Атмосферное давление - измеренное на уровне метеостанции атмосферное давление.
Tmin - Минимальная температура - минимум температуры воздуха на высоте 2 м над землей.
Tmax - Максимальная температура - максимум температуры воздуха на высоте 2 м над землей.
R - Количество осадков - Количество выпавших осадков за период времени, мм. При наведении курсора мыши на число - период времени, за который выпало указанное количество осадков.
R24 - Количество осадков - Количество выпавших осадков за 24 часа, мм.
S - Снежный покров - Высота снежного покрова, см. При наведении курсора мыши на число - состояние снежного покрова и степень покрытия местности в баллах.